QPF
0.01 0.01 0.01 0.01 0.00 0.00 0.00 0.00 0.00 0.00 0.00 0.00 0.00 0.00 0.01 0.03 0.02 0.02 0.03 0.03 0.02 0.02 0.01 0.01 0.01 0.01 0.01 0.00 0.01 0.01 0.01 0.04 0.05 0.06 0.04 0.03 0.03 0.03 0.03 0.03 0.03 0.03 0.02 0.02
0.01 0.01 0.01 0.01 0.00 0.00 0.00 0.00 0.00 0.00 0.00 0.00 0.00 0.00 0.02 0.04 0.03 0.02 0.03 0.03 0.02 0.01 0.01 0.01 0.01 0.01 0.00 0.00 0.00 0.01 0.01 0.01 0.02 0.03 0.03 0.03 0.03 0.03 0.03 0.04 0.04 0.03 0.02 0.01
0.02 0.01 0.01 0.00 0.00 0.00 0.00 0.00 0.00 0.00 0.00 0.00 0.00 0.00 0.01 0.03 0.04 0.03 0.03 0.02 0.02 0.02 0.02 0.02 0.01 0.01 0.00 0.00 0.00 0.00 0.01 0.01 0.01 0.01 0.02 0.02 0.03 0.04 0.04 0.03 0.03 0.03 0.02 0.02
0.02 0.01 0.01 0.00 0.00 0.00 0.00 0.00 0.00 0.00 0.00 0.00 0.00 0.01 0.02 0.02 0.03 0.02 0.02 0.02 0.02 0.02 0.02 0.02 0.01 0.01 0.00 0.00 0.00 0.00 0.01 0.01 0.01 0.01 0.01 0.02 0.02 0.05 0.04 0.03 0.02 0.02 0.02 0.01
0.02 0.02 0.01 0.00 0.00 0.00 0.01 0.00 0.00 0.00 0.00 0.01 0.01 0.01 0.01 0.02 0.02 0.02 0.02 0.01 0.01 0.01 0.02 0.02 0.01 0.00 0.00 0.00 0.00 0.01 0.01 0.01 0.01 0.01 0.01 0.01 0.02 0.04 0.04 0.03 0.02 0.02 0.01 0.01
0.01 0.02 0.01 0.01 0.00 0.00 0.01 0.01 0.00 0.00 0.01 0.01 0.01 0.01 0.01 0.01 0.01 0.01 0.01 0.01 0.00 0.01 0.01 0.01 0.01 0.01 0.01 0.00 0.00 0.01 0.01 0.01 0.01 0.01 0.01 0.01 0.01 0.03 0.04 0.04 0.04 0.03 0.02 0.02
0.02 0.02 0.02 0.01 0.00 0.01 0.01 0.01 0.01 0.00 0.00 0.01 0.01 0.01 0.01 0.01 0.01 0.01 0.00 0.00 0.00 0.00 0.00 0.00 0.01 0.01 0.01 0.01 0.02 0.03 0.04 0.03 0.02 0.01 0.01 0.02 0.03 0.03 0.03 0.05 0.06 0.06 0.04 0.04
0.01 0.01 0.01 0.01 0.01 0.01 0.02 0.01 0.01 0.01 0.01 0.00 0.01 0.01 0.00 0.00 0.00 0.00 0.00 0.00 0.00 0.00 0.00 0.00 0.00 0.00 0.00 0.01 0.01 0.01 0.02 0.03 0.03 0.03 0.03 0.03 0.04 0.04 0.04 0.05 0.06 0.08 0.07 0.06
0.01 0.01 0.01 0.01 0.02 0.02 0.02 0.02 0.02 0.01 0.01 0.01 0.01 0.00 0.00 0.00 0.00 0.00 0.00 0.00 0.00 0.00 0.00 0.00 0.00 0.00 0.00 0.00 0.00 0.00 0.00 0.01 0.01 0.01 0.02 0.03 0.03 0.03 0.03 0.03 0.04 0.04 0.04 0.04
0.02 0.02 0.02 0.02 0.03 0.02 0.02 0.02 0.02 0.01 0.01 0.01 0.00 0.00 0.00 0.00 0.00 0.00 0.00 0.00 0.00 0.00 0.00 0.00 0.00 0.00 0.00 0.00 0.00 0.00 0.00 0.00 0.01 0.01 0.01 0.01 0.02 0.02 0.03 0.03 0.04 0.03 0.03 0.04
0.02 0.02 0.02 0.03 0.02 0.02 0.02 0.02 0.02 0.01 0.00 0.00 0.00 0.00 0.01 0.01 0.01 0.00 0.00 0.00 0.01 0.01 0.00 0.00 0.00 0.00 0.00 0.00 0.00 0.00 0.00 0.00 0.00 0.01 0.01 0.01 0.01 0.02 0.03 0.04 0.04 0.03 0.03 0.03
0.01 0.02 0.03 0.04 0.03 0.02 0.02 0.02 0.02 0.02 0.01 0.01 0.00 0.01 0.01 0.01 0.01 0.01 0.01 0.01 0.01 0.00 0.00 0.00 0.00 0.00 0.00 0.00 0.00 0.00 0.00 0.00 0.00 0.01 0.01 0.01 0.01 0.01 0.02 0.03 0.03 0.04 0.04 0.04
0.01 0.01 0.01 0.02 0.02 0.02 0.01 0.01 0.01 0.01 0.01 0.01 0.01 0.01 0.01 0.01 0.01 0.00 0.00 0.00 0.00 0.00 0.00 0.00 0.00 0.00 0.00 0.00 0.00 0.00 0.00 0.01 0.01 0.01 0.01 0.01 0.01 0.01 0.01 0.02 0.02 0.03 0.04 0.05
0.01 0.01 0.01 0.01 0.01 0.01 0.01 0.01 0.01 0.01 0.00 0.00 0.00 0.00 0.00 0.00 0.00 0.00 0.00 0.00 0.00 0.00 0.00 0.00 0.00 0.00 0.00 0.00 0.00 0.00 0.00 0.00 0.01 0.01 0.01 0.01 0.01 0.01 0.01 0.02 0.02 0.03 0.04 0.05
0.02 0.01 0.01 0.01 0.02 0.02 0.02 0.02 0.01 0.01 0.01 0.01 0.01 0.00 0.00 0.00 0.00 0.00 0.00 0.00 0.00 0.00 0.00 0.00 0.00 0.00 0.00 0.00 0.00 0.00 0.00 0.00 0.00 0.01 0.01 0.01 0.01 0.01 0.02 0.02 0.02 0.03 0.03 0.03
0.03 0.03 0.02 0.02 0.03 0.03 0.02 0.02 0.02 0.01 0.01 0.00 0.00 0.00 0.00 0.00 0.00 0.00 0.00 0.00 0.00 0.00 0.00 0.00 0.00 0.00 0.00 0.00 0.00 0.00 0.00 0.00 0.00 0.00 0.01 0.01 0.01 0.02 0.03 0.04 0.03 0.03 0.03 0.02
0.03 0.03 0.02 0.02 0.02 0.02 0.01 0.01 0.01 0.01 0.00 0.00 0.00 0.00 0.00 0.00 0.00 0.00 0.00 0.00 0.00 0.00 0.00 0.00 0.00 0.00 0.00 0.00 0.00 0.00 0.00 0.00 0.00 0.00 0.01 0.02 0.02 0.03 0.05 0.04 0.03 0.03 0.03 0.03
0.01 0.01 0.01 0.01 0.01 0.01 0.01 0.01 0.01 0.01 0.01 0.01 0.01 0.00 0.00 0.00 0.00 0.00 0.00 0.00 0.00 0.00 0.00 0.00 0.00 0.00 0.00 0.00 0.00 0.00 0.00 0.00 0.00 0.00 0.00 0.01 0.02 0.02 0.03 0.03 0.03 0.03 0.02 0.03
0.01 0.01 0.01 0.01 0.01 0.01 0.01 0.01 0.01 0.01 0.01 0.01 0.01 0.01 0.00 0.00 0.00 0.00 0.00 0.00 0.00 0.00 0.00 0.00 0.00 0.00 0.00 0.00 0.00 0.00 0.00 0.00 0.00 0.00 0.00 0.00 0.00 0.01 0.02 0.03 0.03 0.03 0.03 0.03
0.01 0.01 0.01 0.01 0.01 0.01 0.01 0.01 0.01 0.01 0.02 0.02 0.02 0.01 0.00 0.00 0.00 0.00 0.00 0.00 0.00 0.00 0.00 0.00 0.01 0.01 0.00 0.00 0.00 0.00 0.00 0.00 0.00 0.00 0.00 0.00 0.01 0.01 0.02 0.03 0.03 0.03 0.03 0.03
0.01 0.01 0.01 0.01 0.01 0.01 0.02 0.02 0.02 0.02 0.02 0.01 0.01 0.01 0.01 0.01 0.00 0.00 0.00 0.00 0.01 0.01 0.01 0.01 0.01 0.01 0.00 0.00 0.00 0.00 0.00 0.00 0.01 0.01 0.01 0.01 0.01 0.01 0.02 0.02 0.02 0.02 0.02 0.02
0.01 0.01 0.01 0.01 0.01 0.01 0.01 0.01 0.01 0.01 0.01 0.01 0.00 0.00 0.01 0.01 0.01 0.01 0.01 0.01 0.01 0.01 0.01 0.01 0.00 0.00 0.01 0.00 0.01 0.01 0.01 0.01 0.01 0.01 0.01 0.01 0.01 0.01 0.01 0.01 0.01 0.01 0.02 0.02
0.01 0.01 0.02 0.02 0.02 0.01 0.01 0.01 0.02 0.02 0.02 0.02 0.01 0.01 0.01 0.01 0.01 0.01 0.01 0.01 0.01 0.01 0.01 0.01 0.00 0.00 0.01 0.01 0.01 0.01 0.01 0.01 0.02 0.02 0.01 0.01 0.01 0.01 0.02 0.02 0.02 0.03 0.05 0.05
0.02 0.02 0.03 0.03 0.02 0.02 0.02 0.02 0.01 0.02 0.02 0.03 0.03 0.02 0.01 0.01 0.00 0.01 0.01 0.01 0.01 0.02 0.01 0.01 0.01 0.00 0.00 0.00 0.00 0.00 0.00 0.01 0.01 0.01 0.01 0.01 0.01 0.01 0.02 0.02 0.03 0.03 0.04 0.03
0.04 0.04 0.03 0.02 0.01 0.01 0.02 0.02 0.02 0.01 0.01 0.01 0.02 0.02 0.02 0.02 0.01 0.01 0.01 0.01 0.01 0.02 0.01 0.01 0.01 0.01 0.00 0.00 0.00 0.00 0.00 0.00 0.00 0.00 0.00 0.00 0.01 0.01 0.01 0.02 0.03 0.03 0.03 0.03
0.04 0.03 0.01 0.01 0.01 0.01 0.01 0.00 0.00 0.00 0.00 0.00 0.00 0.00 0.00 0.01 0.01 0.01 0.01 0.01 0.02 0.02 0.02 0.02 0.02 0.01 0.01 0.01 0.00 0.00 0.00 0.00 0.00 0.00 0.00 0.00 0.01 0.01 0.02 0.02 0.03 0.02 0.02 0.02
0.01 0.01 0.01 0.01 0.01 0.01 0.01 0.01 0.01 0.01 0.01 0.01 0.00 0.00 0.00 0.00 0.00 0.00 0.00 0.01 0.01 0.01 0.01 0.02 0.01 0.01 0.01 0.01 0.01 0.01 0.01 0.01 0.00 0.00 0.01 0.01 0.01 0.02 0.02 0.02 0.01 0.01 0.01 0.02
MSLP
1008.78 1009.47 1010.12 1010.71 1011.22 1011.61 1011.86 1011.96 1011.89 1011.69 1011.39 1011.04 1010.70 1010.41 1010.22 1010.15 1010.20 1010.34 1010.53 1010.74 1010.90 1010.96 1010.91 1010.72 1010.39 1009.95 1009.42 1008.84 1008.23 1007.65 1007.12 1006.64 1006.25 1005.95 1005.74 1005.63 1005.61 1005.69 1005.86 1006.10 1006.41 1006.79 1007.22 1007.70
1008.89 1009.48 1009.99 1010.41 1010.72 1010.92 1011.02 1011.02 1010.94 1010.79 1010.61 1010.43 1010.27 1010.17 1010.14 1010.18 1010.28 1010.42 1010.56 1010.69 1010.74 1010.72 1010.58 1010.33 1009.96 1009.50 1008.97 1008.39 1007.79 1007.20 1006.64 1006.14 1005.72 1005.39 1005.16 1005.04 1005.03 1005.13 1005.32 1005.60 1005.94 1006.35 1006.81 1007.29
1009.02 1009.51 1009.88 1010.12 1010.25 1010.29 1010.26 1010.18 1010.09 1009.99 1009.91 1009.86 1009.87 1009.92 1010.01 1010.14 1010.29 1010.42 1010.53 1010.59 1010.57 1010.46 1010.25 1009.95 1009.57 1009.10 1008.57 1008.01 1007.42 1006.83 1006.27 1005.76 1005.32 1004.97 1004.73 1004.60 1004.58 1004.68 1004.88 1005.17 1005.54 1005.96 1006.43 1006.92
1009.17 1009.54 1009.77 1009.86 1009.84 1009.75 1009.61 1009.47 1009.35 1009.28 1009.27 1009.32 1009.43 1009.59 1009.78 1009.97 1010.15 1010.29 1010.37 1010.38 1010.30 1010.15 1009.91 1009.58 1009.19 1008.74 1008.23 1007.69 1007.12 1006.56 1006.01 1005.50 1005.06 1004.70 1004.45 1004.31 1004.28 1004.38 1004.58 1004.87 1005.24 1005.66 1006.12 1006.61
1009.27 1009.53 1009.63 1009.61 1009.48 1009.29 1009.08 1008.88 1008.74 1008.68 1008.69 1008.79 1008.96 1009.18 1009.42 1009.64 1009.84 1009.98 1010.05 1010.04 1009.94 1009.77 1009.52 1009.20 1008.83 1008.40 1007.93 1007.42 1006.89 1006.36 1005.84 1005.35 1004.92 1004.57 1004.32 1004.18 1004.15 1004.24 1004.44 1004.72 1005.07 1005.48 1005.92 1006.39
1009.26 1009.41 1009.43 1009.32 1009.13 1008.88 1008.63 1008.41 1008.25 1008.17 1008.19 1008.29 1008.47 1008.70 1008.94 1009.18 1009.37 1009.51 1009.58 1009.58 1009.49 1009.33 1009.10 1008.82 1008.48 1008.09 1007.66 1007.20 1006.72 1006.23 1005.75 1005.29 1004.89 1004.56 1004.33 1004.20 1004.18 1004.27 1004.46 1004.73 1005.06 1005.45 1005.86 1006.30
1009.07 1009.15 1009.11 1008.98 1008.77 1008.52 1008.26 1008.04 1007.87 1007.78 1007.77 1007.85 1008.01 1008.20 1008.42 1008.64 1008.82 1008.96 1009.04 1009.05 1008.99 1008.87 1008.68 1008.44 1008.15 1007.82 1007.45 1007.04 1006.60 1006.16 1005.72 1005.31 1004.95 1004.65 1004.45 1004.34 1004.34 1004.44 1004.63 1004.88 1005.20 1005.56 1005.94 1006.34
1008.67 1008.71 1008.67 1008.56 1008.39 1008.18 1007.97 1007.78 1007.62 1007.53 1007.50 1007.53 1007.63 1007.78 1007.95 1008.12 1008.28 1008.40 1008.49 1008.52 1008.50 1008.42 1008.29 1008.11 1007.87 1007.59 1007.27 1006.91 1006.52 1006.13 1005.74 1005.37 1005.05 1004.80 1004.64 1004.56 1004.58 1004.70 1004.88 1005.14 1005.44 1005.77 1006.12 1006.48
1008.10 1008.14 1008.14 1008.10 1008.02 1007.90 1007.77 1007.64 1007.52 1007.44 1007.39 1007.38 1007.42 1007.49 1007.59 1007.70 1007.82 1007.92 1008.00 1008.04 1008.05 1008.02 1007.94 1007.81 1007.63 1007.40 1007.13 1006.81 1006.47 1006.12 1005.77 1005.45 1005.18 1004.97 1004.84 1004.80 1004.84 1004.97 1005.17 1005.42 1005.71 1006.02 1006.35 1006.68
1007.45 1007.53 1007.60 1007.67 1007.70 1007.71 1007.70 1007.66 1007.60 1007.54 1007.48 1007.43 1007.40 1007.39 1007.41 1007.44 1007.49 1007.55 1007.61 1007.65 1007.68 1007.67 1007.63 1007.55 1007.41 1007.23 1007.00 1006.72 1006.42 1006.11 1005.80 1005.52 1005.28 1005.11 1005.02 1005.00 1005.07 1005.21 1005.41 1005.66 1005.94 1006.24 1006.55 1006.86
1006.85 1007.00 1007.16 1007.34 1007.52 1007.67 1007.78 1007.84 1007.86 1007.83 1007.77 1007.68 1007.58 1007.49 1007.41 1007.35 1007.32 1007.31 1007.32 1007.34 1007.35 1007.36 1007.34 1007.28 1007.19 1007.04 1006.85 1006.62 1006.35 1006.08 1005.81 1005.56 1005.36 1005.22 1005.14 1005.15 1005.22 1005.37 1005.57 1005.81 1006.09 1006.37 1006.67 1006.96
1006.46 1006.67 1006.93 1007.22 1007.53 1007.80 1008.04 1008.20 1008.29 1008.30 1008.23 1008.10 1007.94 1007.76 1007.57 1007.40 1007.27 1007.17 1007.10 1007.07 1007.05 1007.04 1007.02 1006.99 1006.91 1006.80 1006.65 1006.46 1006.25 1006.02 1005.79 1005.58 1005.40 1005.28 1005.22 1005.23 1005.30 1005.44 1005.62 1005.85 1006.11 1006.39 1006.68 1006.96
1006.35 1006.62 1006.96 1007.34 1007.75 1008.13 1008.46 1008.70 1008.84 1008.87 1008.80 1008.63 1008.40 1008.12 1007.83 1007.54 1007.29 1007.08 1006.91 1006.80 1006.73 1006.68 1006.65 1006.62 1006.57 1006.50 1006.39 1006.25 1006.09 1005.91 1005.73 1005.57 1005.42 1005.32 1005.27 1005.27 1005.33 1005.44 1005.60 1005.81 1006.05 1006.31 1006.58 1006.86
1006.57 1006.87 1007.25 1007.70 1008.16 1008.61 1008.99 1009.28 1009.45 1009.49 1009.40 1009.19 1008.88 1008.51 1008.11 1007.70 1007.32 1006.99 1006.72 1006.51 1006.37 1006.27 1006.22 1006.18 1006.15 1006.11 1006.06 1005.98 1005.89 1005.78 1005.66 1005.54 1005.44 1005.36 1005.31 1005.30 1005.34 1005.42 1005.55 1005.72 1005.93 1006.16 1006.41 1006.68
1007.05 1007.36 1007.76 1008.21 1008.70 1009.16 1009.57 1009.87 1010.05 1010.08 1009.96 1009.71 1009.33 1008.87 1008.37 1007.85 1007.35 1006.90 1006.52 1006.21 1005.98 1005.83 1005.73 1005.69 1005.67 1005.67 1005.67 1005.67 1005.65 1005.61 1005.56 1005.51 1005.45 1005.40 1005.36 1005.35 1005.37 1005.42 1005.51 1005.64 1005.80 1005.99 1006.21 1006.46
1007.68 1007.98 1008.36 1008.79 1009.25 1009.70 1010.09 1010.38 1010.54 1010.55 1010.41 1010.11 1009.69 1009.17 1008.58 1007.97 1007.38 1006.82 1006.33 1005.93 1005.62 1005.40 1005.26 1005.19 1005.18 1005.21 1005.26 1005.32 1005.37 1005.42 1005.44 1005.45 1005.45 1005.44 1005.43 1005.42 1005.42 1005.44 1005.49 1005.58 1005.69 1005.84 1006.01 1006.21
1008.32 1008.59 1008.92 1009.31 1009.73 1010.13 1010.48 1010.73 1010.87 1010.86 1010.70 1010.39 1009.94 1009.38 1008.75 1008.08 1007.41 1006.78 1006.20 1005.72 1005.33 1005.04 1004.85 1004.76 1004.73 1004.77 1004.85 1004.96 1005.07 1005.19 1005.28 1005.36 1005.41 1005.44 1005.46 1005.46 1005.47 1005.47 1005.49 1005.53 1005.60 1005.69 1005.82 1005.97
1008.86 1009.08 1009.36 1009.68 1010.04 1010.38 1010.68 1010.90 1011.01 1010.99 1010.83 1010.53 1010.08 1009.53 1008.89 1008.20 1007.50 1006.82 1006.19 1005.64 1005.18 1004.83 1004.58 1004.44 1004.39 1004.41 1004.49 1004.61 1004.76 1004.91 1005.06 1005.19 1005.29 1005.36 1005.41 1005.44 1005.45 1005.46 1005.46 1005.47 1005.50 1005.55 1005.62 1005.71
1009.20 1009.38 1009.60 1009.86 1010.15 1010.43 1010.68 1010.87 1010.97 1010.96 1010.81 1010.54 1010.14 1009.62 1009.02 1008.36 1007.67 1006.98 1006.33 1005.73 1005.22 1004.81 1004.50 1004.29 1004.18 1004.15 1004.19 1004.29 1004.43 1004.59 1004.75 1004.90 1005.03 1005.14 1005.23 1005.28 1005.31 1005.33 1005.34 1005.34 1005.34 1005.36 1005.38 1005.42
1009.37 1009.51 1009.68 1009.88 1010.10 1010.33 1010.53 1010.70 1010.79 1010.80 1010.70 1010.48 1010.14 1009.70 1009.17 1008.57 1007.92 1007.26 1006.61 1006.00 1005.46 1004.99 1004.60 1004.31 1004.12 1004.01 1003.98 1004.01 1004.09 1004.21 1004.35 1004.49 1004.63 1004.76 1004.87 1004.95 1005.01 1005.06 1005.08 1005.09 1005.10 1005.09 1005.09 1005.09
1009.46 1009.56 1009.68 1009.82 1009.98 1010.16 1010.33 1010.47 1010.56 1010.59 1010.53 1010.38 1010.13 1009.78 1009.33 1008.82 1008.25 1007.64 1007.02 1006.41 1005.84 1005.32 1004.87 1004.49 1004.19 1003.97 1003.83 1003.77 1003.76 1003.80 1003.88 1003.98 1004.10 1004.22 1004.34 1004.45 1004.54 1004.62 1004.68 1004.72 1004.74 1004.74 1004.74 1004.72
1009.57 1009.64 1009.71 1009.80 1009.91 1010.03 1010.15 1010.27 1010.35 1010.39 1010.38 1010.29 1010.11 1009.85 1009.51 1009.08 1008.59 1008.05 1007.48 1006.89 1006.31 1005.75 1005.23 1004.76 1004.36 1004.02 1003.76 1003.57 1003.44 1003.37 1003.36 1003.40 1003.47 1003.56 1003.68 1003.80 1003.93 1004.04 1004.15 1004.23 1004.29 1004.32 1004.33 1004.32
1009.83 1009.86 1009.89 1009.93 1009.97 1010.04 1010.11 1010.18 1010.24 1010.28 1010.28 1010.23 1010.12 1009.93 1009.67 1009.33 1008.92 1008.45 1007.92 1007.36 1006.78 1006.19 1005.62 1005.08 1004.57 1004.12 1003.73 1003.41 1003.16 1002.97 1002.86 1002.81 1002.81 1002.87 1002.97 1003.09 1003.24 1003.39 1003.54 1003.67 1003.78 1003.86 1003.91 1003.93
1010.31 1010.31 1010.29 1010.27 1010.25 1010.25 1010.25 1010.27 1010.28 1010.29 1010.28 1010.24 1010.15 1010.01 1009.80 1009.52 1009.18 1008.76 1008.28 1007.75 1007.17 1006.58 1005.97 1005.36 1004.78 1004.23 1003.73 1003.30 1002.93 1002.63 1002.41 1002.27 1002.21 1002.21 1002.28 1002.40 1002.55 1002.73 1002.91 1003.09 1003.25 1003.39 1003.49 1003.55
1011.02 1010.99 1010.93 1010.85 1010.76 1010.68 1010.60 1010.54 1010.49 1010.44 1010.38 1010.31 1010.22 1010.08 1009.89 1009.64 1009.33 1008.95 1008.51 1008.00 1007.44 1006.84 1006.22 1005.58 1004.95 1004.33 1003.75 1003.23 1002.76 1002.38 1002.07 1001.85 1001.71 1001.66 1001.69 1001.79 1001.94 1002.12 1002.33 1002.55 1002.75 1002.93 1003.09 1003.20
1011.93 1011.87 1011.76 1011.62 1011.46 1011.30 1011.13 1010.98 1010.84 1010.71 1010.59 1010.46 1010.32 1010.15 1009.95 1009.70 1009.39 1009.03 1008.60 1008.11 1007.57 1006.98 1006.35 1005.70 1005.04 1004.39 1003.77 1003.19 1002.67 1002.22 1001.84 1001.56 1001.36 1001.26 1001.25 1001.31 1001.43 1001.61 1001.83 1002.05 1002.29 1002.50 1002.70 1002.87
1012.94 1012.85 1012.69 1012.49 1012.27 1012.02 1011.78 1011.54 1011.30 1011.09 1010.88 1010.67 1010.46 1010.24 1009.99 1009.71 1009.38 1009.01 1008.58 1008.10 1007.56 1006.98 1006.36 1005.72 1005.07 1004.42 1003.78 1003.19 1002.63 1002.15 1001.74 1001.41 1001.17 1001.01 1000.95 1000.97 1001.06 1001.21 1001.41 1001.63 1001.86 1002.10 1002.32 1002.52
Thickness
5712 5717 5715 5712 5711 5707 5698 5693 5687 5693 5694 5702 5704 5702 5701 5699 5696 5693 5690 5687 5683 5680 5676 5674 5672 5670 5667 5664 5662 5660 5656 5653 5651 5649 5646 5643 5641 5638 5636 5635 5633 5631 5628 5626
5707 5713 5711 5707 5710 5708 5704 5701 5696 5696 5697 5708 5705 5702 5697 5695 5692 5687 5684 5681 5678 5675 5672 5669 5667 5664 5662 5659 5657 5655 5651 5648 5647 5644 5641 5639 5637 5635 5633 5631 5628 5626 5623 5621
5689 5701 5703 5694 5708 5708 5706 5706 5702 5695 5701 5703 5698 5696 5694 5691 5688 5683 5680 5677 5673 5670 5667 5665 5662 5660 5657 5655 5653 5650 5647 5644 5642 5639 5636 5635 5633 5630 5627 5625 5624 5621 5619 5616
5679 5688 5678 5699 5716 5715 5708 5707 5706 5706 5704 5701 5699 5694 5691 5688 5684 5680 5676 5673 5670 5667 5663 5660 5658 5655 5652 5650 5647 5644 5641 5639 5637 5635 5632 5630 5627 5625 5623 5621 5618 5617 5614 5612
5668 5670 5679 5698 5711 5710 5703 5700 5707 5703 5699 5696 5693 5688 5683 5684 5681 5677 5673 5670 5666 5663 5660 5656 5653 5650 5647 5644 5642 5639 5636 5634 5632 5630 5627 5625 5622 5620 5618 5616 5614 5612 5610 5608
5666 5668 5667 5690 5709 5712 5704 5690 5704 5700 5694 5689 5685 5674 5675 5681 5678 5673 5669 5666 5662 5658 5654 5651 5648 5645 5641 5639 5636 5634 5632 5630 5628 5625 5622 5620 5618 5616 5614 5611 5610 5608 5606 5604
5664 5664 5674 5695 5704 5705 5683 5685 5699 5696 5692 5686 5681 5680 5679 5677 5672 5668 5664 5660 5657 5652 5648 5645 5642 5639 5635 5633 5630 5629 5627 5625 5623 5621 5618 5616 5614 5612 5609 5607 5605 5603 5601 5599
5657 5658 5669 5695 5694 5688 5686 5693 5693 5690 5687 5682 5678 5676 5673 5670 5666 5661 5657 5654 5650 5645 5641 5638 5636 5633 5629 5627 5626 5624 5621 5619 5617 5615 5613 5613 5609 5607 5605 5602 5599 5598 5596 5595
5664 5669 5680 5685 5687 5689 5688 5686 5686 5684 5681 5677 5672 5669 5666 5662 5658 5655 5651 5647 5643 5639 5635 5632 5630 5627 5624 5623 5621 5619 5616 5613 5611 5609 5608 5606 5603 5602 5599 5597 5595 5594 5592 5591
5662 5669 5676 5678 5680 5682 5683 5682 5682 5680 5676 5672 5668 5664 5659 5655 5651 5647 5644 5640 5637 5632 5628 5626 5624 5622 5619 5618 5615 5613 5609 5607 5605 5603 5602 5600 5598 5596 5594 5592 5591 5590 5589 5587
5656 5663 5668 5672 5673 5674 5675 5675 5675 5673 5670 5666 5662 5656 5652 5647 5644 5640 5637 5633 5630 5626 5623 5621 5619 5616 5615 5613 5610 5606 5603 5601 5599 5597 5596 5594 5593 5591 5590 5589 5587 5586 5585 5583
5651 5659 5657 5661 5667 5667 5666 5665 5664 5662 5660 5657 5655 5649 5645 5640 5636 5633 5630 5627 5623 5621 5618 5616 5614 5612 5610 5608 5604 5601 5598 5596 5594 5592 5591 5589 5588 5587 5587 5586 5585 5583 5581 5578
5653 5656 5655 5658 5658 5659 5658 5657 5656 5654 5651 5647 5645 5642 5638 5633 5630 5627 5624 5621 5618 5616 5614 5611 5609 5607 5605 5603 5599 5595 5592 5590 5589 5587 5586 5584 5583 5582 5582 5582 5580 5579 5577 5575
5647 5648 5647 5648 5648 5650 5649 5648 5647 5645 5642 5640 5637 5634 5631 5627 5624 5620 5617 5616 5614 5611 5609 5606 5604 5602 5600 5597 5594 5591 5588 5586 5584 5582 5581 5579 5578 5577 5576 5575 5575 5575 5573 5571
5638 5640 5639 5640 5640 5640 5639 5638 5636 5633 5631 5629 5628 5626 5623 5620 5617 5615 5613 5610 5608 5605 5603 5601 5599 5597 5595 5592 5589 5585 5583 5581 5579 5577 5576 5574 5573 5572 5571 5570 5569 5568 5568 5568
5627 5630 5631 5630 5629 5629 5628 5627 5625 5623 5622 5621 5619 5618 5616 5613 5611 5608 5606 5604 5601 5599 5597 5595 5593 5592 5590 5587 5583 5580 5578 5576 5575 5573 5571 5569 5568 5566 5565 5565 5564 5563 5563 5563
5615 5615 5618 5618 5619 5618 5618 5617 5616 5615 5613 5612 5610 5608 5607 5604 5602 5601 5599 5598 5595 5594 5592 5590 5588 5587 5584 5581 5578 5576 5573 5571 5570 5568 5566 5564 5563 5561 5560 5560 5559 5559 5558 5559
5609 5610 5611 5611 5610 5609 5608 5608 5607 5606 5605 5604 5602 5599 5597 5595 5594 5593 5592 5590 5588 5587 5586 5584 5582 5580 5578 5576 5573 5571 5568 5566 5565 5563 5561 5559 5558 5557 5556 5555 5555 5555 5555 5555
5600 5602 5603 5603 5602 5601 5600 5599 5598 5597 5597 5595 5592 5589 5588 5587 5586 5585 5583 5582 5580 5579 5579 5578 5576 5574 5572 5571 5569 5566 5564 5562 5561 5559 5557 5555 5554 5553 5552 5551 5551 5551 5551 5551
5591 5593 5594 5594 5593 5591 5590 5589 5589 5588 5587 5585 5583 5580 5579 5578 5578 5576 5575 5573 5573 5572 5572 5570 5569 5568 5567 5565 5563 5561 5559 5558 5556 5555 5553 5552 5551 5550 5549 5548 5548 5547 5547 5547
5580 5582 5583 5582 5581 5581 5580 5580 5579 5578 5578 5577 5575 5573 5571 5570 5569 5568 5566 5566 5568 5567 5565 5564 5563 5562 5561 5559 5558 5556 5554 5552 5551 5550 5549 5548 5547 5546 5545 5545 5544 5544 5544 5544
5568 5569 5570 5570 5569 5569 5569 5569 5569 5569 5569 5568 5568 5566 5564 5562 5562 5560 5560 5559 5560 5559 5559 5558 5557 5556 5554 5554 5552 5551 5550 5548 5547 5545 5545 5544 5543 5542 5542 5541 5541 5541 5541 5540
5556 5557 5558 5558 5558 5558 5558 5558 5559 5559 5559 5559 5558 5557 5556 5555 5553 5552 5553 5553 5553 5553 5552 5552 5551 5550 5549 5548 5547 5546 5545 5543 5542 5541 5540 5539 5539 5538 5538 5538 5537 5537 5537 5537
5546 5546 5546 5546 5547 5547 5547 5547 5548 5548 5549 5549 5549 5549 5548 5547 5547 5547 5546 5547 5546 5546 5546 5545 5544 5544 5543 5543 5542 5540 5539 5538 5537 5536 5535 5534 5534 5533 5533 5533 5533 5533 5533 5533
5535 5535 5535 5535 5535 5535 5536 5536 5537 5538 5539 5539 5540 5541 5540 5540 5539 5540 5540 5540 5540 5539 5539 5539 5538 5537 5538 5538 5536 5535 5534 5534 5532 5531 5530 5530 5529 5529 5528 5528 5529 5529 5529 5529
5524 5524 5524 5524 5524 5524 5525 5526 5527 5528 5529 5530 5531 5532 5532 5532 5533 5532 5533 5533 5533 5532 5532 5532 5532 5531 5531 5531 5531 5530 5530 5529 5528 5527 5526 5526 5525 5525 5524 5524 5524 5525 5525 5524
5515 5515 5514 5515 5515 5516 5516 5517 5517 5518 5519 5521 5522 5524 5524 5525 5525 5526 5526 5526 5526 5526 5526 5526 5526 5526 5525 5525 5525 5525 5524 5524 5523 5523 5523 5522 5521 5521 5520 5520 5520 5520 5520 5519